Regional Weather Roundup
Issued by NWS Cleveland, OH

Home | Current Version | Previous Version | Text Only | Print | Product List | Glossary Off
Versions: 1 2 3 4 5 6 7 8 9 10 11 12 13 14 15 16 17 18 19 20 21 22 23 24 25 26 27 28 29 30 31 32 33 34 35 36 37 38 39 40 41 42 43 44 45 46 47 48 49 50

000
ASUS41 KCLE 030300
RWRCLE
OHIO REGIONAL WEATHER ROUNDUP
NATIONAL WEATHER SERVICE WILMINGTON, OH
1000 PM EST MON MAR 02 2015

NOTE: "FAIR" INDICATES FEW OR NO CLOUDS BELOW 12,000 FEET WITH NO
SIGNIFICANT WEATHER AND/OR OBSTRUCTIONS TO VISIBILITY.

OHZ001>008-015>018-024>027-034-035-043-044-030400-
   NORTHWEST OHIO

CITY           SKY/WX    TMP DP  RH WIND       PRES   REMARKS
DEFIANCE       MOCLDY    22  13  68 S6        30.39F WCI  14
FINDLAY        MOCLDY    14   8  77 SE5       30.39F WCI   6
TOLEDO EXPRESS MOCLDY    20  13  74 S6        30.39F WCI  12
TOLEDO EXEC    MOCLDY    19  11  70 SW8       30.41S WCI   9
LIMA           PTCLDY    17   9  70 SE6       30.37F WCI   9
$$

OHZ009>014-019>023-028>033-038-089-030400-
   NORTHEAST OHIO

CITY           SKY/WX    TMP DP  RH WIND       PRES   REMARKS
CLE-HOPKINS    MOCLDY    20   9  62 S6        30.43F WCI  12
CLE-LAKEFRONT  MOCLDY    22  12  65 SE5       30.41F WCI  16
CUY CO. ARPT   CLEAR     14  10  85 SE5       30.41F WCI   6
LORAIN-ELYRIA  PTCLDY    13   7  77 S5        30.40F WCI   5
ASHTABULA      MOCLDY    11   7  84 CALM      30.42F
AKRON-CANTON   PTCLDY    14   6  70 S5        30.39F WCI   6
WOOSTER        NOT AVBL
MANSFIELD      PTCLDY    16  10  77 S5        30.36F WCI   9
YOUNGSTOWN     PTCLDY    15   6  67 E5        30.39F WCI   8
$$

OHZ042-051>053-060>062-070>072-077>081-030400-
  SOUTHWEST OHIO

CITY           SKY/WX    TMP DP  RH WIND       PRES   REMARKS
CINC-COVINGTON CLOUDY    29  17  61 E8        30.35F WCI  21
CINC-LUNKEN    MOCLDY    26  17  68 NE7       30.40F WCI  18
HAMILTON       CLOUDY    26  17  68 E5        30.40F WCI  20
DAYTON         NOT AVBL
WRIGHT-PAT AFB NOT AVBL
DAYTON GENERAL MOCLDY    24  14  65 E6        30.37F WCI  17
WILMINGTON     MOCLDY    20  11  68 CALM      30.38F
$$

OHZ036-037-039>041-045>050-054>059-063>069-073>076-082>088-030400-
  CENTRAL AND SOUTHEAST OHIO

CITY           SKY/WX    TMP DP  RH WIND       PRES   REMARKS
COLUMBUS       MOCLDY    20  10  65 CALM      30.41F
OSU AIRPORT    MOCLDY    20  10  65 CALM      30.41S
BOLTON FIELD   NOT AVBL
RICKENBACK AFB NOT AVBL
NEWARK         PTCLDY    15   9  76 CALM      30.39F
MARION         PTCLDY    12   7  80 SW5       30.40F HAZE    WCI   4
LANCASTER      PTCLDY    16  12  84 CALM      30.41F FOG
ZANESVILLE     PTCLDY    19  11  70 CALM      30.41F
NEW PHILLY     PTCLDY    16   9  74 CALM      30.43F HAZE
$$



USA.gov is the U.S. government's official web portal to all federal, state and local government web resources and services.